[[{"header":{"parameterUnit":"m.s-1","parameterCategory":1,"la1":30.2991,"la2":30.254,"lo1":-89.0895,"lo2":-89.0444,"dy":0.0017,"dx":0.0017,"nx":28,"ny":28,"refTime":"2024-05-27T21:00:00:Z","depth":0,"parameterNumber":2,"parameterNumberName":"U-component_of_WINDS"},"data":[0,0,0,0,0,0,0,0,0,0,0,0,0,0,0,0,0,0,0,0,0,0,0,0,0,0,0,0,0,0,0,0,0,0,0,0,0,0,0,0,0,0,0,0,0,0,0,0,0,0,0,0,0,0,0,0,0,0,0.8696,0.8698,0,0.8826,0.8828,0.8829,0.8864,0.8864,0.8863,0.8862,0.8997,0.9002,0.9006,0,0,0,0,0,0,0,0,0,0,0,0,0,0.848,0.8484,0.8696,0.8698,0.87,0.8826,0.8828,0.883,0.8864,0.8863,0.8863,0.8862,0.8996,0.9001,0.9006,0,0,0,0,0,0,0,0,0,0,0,0,0,0.8588,0.8485,0.8696,0.8732,0.8737,0.8826,0.8828,0.883,0.8865,0.8863,0.8862,0.8861,0.8994,0.9,0.9007,0.907,0,0,0.9027,0.903,0,0,0,0,0,0,0,0,0.8582,0.8596,0.8725,0.873,0.8735,0.8828,0.8801,0.8911,0.8865,0.8816,0.8862,0.8861,0.8942,0.8953,0.898,0.9076,0.9082,0.9027,0.9031,0.9034,0.9036,0,0,0,0,0,0,0,0.8575,0.8591,0.8748,0.8727,0.8733,0.8742,0.8757,0.8822,0.8884,0.882,0.8823,0.8838,0.8945,0.8973,0.8983,0.9084,0.9027,0.9033,0.9037,0.9039,0.924,0.9241,0,0,0,0,0,0,0.8561,0.8584,0.8744,0.8752,0.8654,0.8747,0.8763,0.8799,0.8883,0.8895,0.8839,0.8839,0.8963,0.8976,0.8988,0.9068,0.9034,0.904,0.9044,0.9239,0.924,0.9242,0,0,0,0,0,0,0.8556,0.8574,0.8738,0.8669,0.869,0.8752,0.8793,0.8802,0.8831,0.8897,0.8909,0.8857,0.8962,0.8979,0.9049,0.9073,0.9043,0.9049,0.9237,0.9239,0.9241,0.9227,0,0,0,0,0,0,0.8549,0.8573,0.8597,0.8669,0.8694,0.8797,0.8794,0.8806,0.8842,0.8844,0.8917,0.8928,0.8963,0.904,0.9056,0.9081,0.9054,0.9235,0.9238,0.924,0.9226,0.9229,0.9231,0,0,0,0,0,0.8542,0.8588,0.8598,0.8617,0.8725,0.8798,0.8812,0.8851,0.8844,0.8869,0.8912,0.8926,0.9068,0.9046,0.9065,0.9093,0.9234,0.9237,0.924,0.9225,0.9228,0.9231,0,0,0,0,0,0,0.8517,0.8598,0.861,0.8681,0.8732,0.8804,0.8837,0.8853,0.8908,0.8907,0.8953,0.8969,0.9036,0.9072,0.9047,0.9159,0.9151,0.9158,0.9133,0.9137,0.9139,0.9129,0.9059,0,0,0,0,0,0.852,0.8572,0.864,0.8696,0.8721,0.8774,0.8808,0.8832,0.8888,0.891,0.8958,0.9011,0.9068,0.9105,0.916,0.9232,0.9248,0.926,0.9262,0.9264,0.927,0.931,0.9316,0.9253,0.9252,0.9252,0,0,0.8526,0.8577,0.8607,0.8693,0.8735,0.8788,0.8793,0.8849,0.8889,0.8919,0.8988,0.9025,0.9088,0.9159,0.9193,0.9191,0.9291,0.9268,0.9269,0.9274,0.9314,0.932,0.9326,0.9255,0.9254,0.9254,0,0,0.8565,0.8609,0.866,0.8703,0.8768,0.8803,0.8815,0.8885,0.891,0.898,0.9004,0.9053,0.9149,0.9193,0.9228,0.9284,0.93,0.9301,0.9315,0.9354,0.9359,0.9363,0.9383,0.939,0.9306,0.9306,0.9306,0,0.8565,0.8646,0.8685,0.874,0.8777,0.8806,0.8859,0.8899,0.8979,0.9004,0.9,0.9122,0.9167,0.9249,0.9262,0.929,0.9305,0.9293,0.9355,0.936,0.9365,0.9384,0.9392,0.9306,0.9306,0.9306,0.9306,0,0.8642,0.8698,0.8732,0.8808,0.8849,0.8902,0.895,0.8987,0.9009,0.9044,0.9116,0.917,0.9238,0.9259,0.9281,0.9344,0.9341,0.9345,0.9338,0.937,0.9389,0.9397,0.9306,0.9306,0.9306,0.9306,0,0,0.8669,0.8766,0.8778,0.8812,0.8886,0.893,0.8985,0.9051,0.9082,0.9136,0.9184,0.9265,0.9269,0.9309,0.9336,0.937,0.9411,0.9371,0.9373,0.9377,0.9485,0.9481,0.9489,0.9422,0.9424,0.9425,0.948,0,0.8717,0.8816,0.8853,0.8935,0.8987,0.9015,0.9064,0.9114,0.9149,0.9199,0.9238,0.9295,0.9297,0.9321,0.9356,0.9399,0.9434,0.9395,0.9468,0.947,0.945,0.9499,0.9495,0.9544,0.9487,0.9489,0.949,0,0.8786,0.884,0.8926,0.8994,0.9017,0.906,0.9123,0.917,0.9228,0.9251,0.9296,0.9321,0.938,0.937,0.9453,0.9426,0.9458,0.9484,0.9486,0.9494,0.9481,0.9508,0.956,0.9567,0.9502,0.9501,0.95,0,0.8796,0.8891,0.8955,0.8984,0.9065,0.9094,0.9129,0.9186,0.9223,0.9279,0.9303,0.9365,0.9399,0.9447,0.9488,0.9476,0.9567,0.956,0.9589,0.9587,0.9606,0.9604,0.9664,0.9627,0.9627,0.9627,0.9626,0,0.8845,0.8897,0.8961,0.9,0.9059,0.9102,0.9159,0.9196,0.9247,0.9295,0.9324,0.9368,0.942,0.9471,0.9504,0.9568,0.9583,0.9604,0.9612,0.9601,0.9598,0.9622,0.962,0.9629,0.9628,0.9628,0.9627,0,0.8867,0.8911,0.8983,0.9054,0.9073,0.9113,0.9173,0.9213,0.9249,0.9309,0.9326,0.9383,0.9445,0.9491,0.9571,0.9593,0.9661,0.9669,0.9641,0.9645,0.9671,0.9667,0.9747,0.976,0.9714,0.9715,0.9715,0,0.8895,0.8935,0.901,0.9044,0.9078,0.9132,0.917,0.9214,0.9253,0.9323,0.9354,0.9417,0.947,0.9568,0.9617,0.9678,0.9688,0.9712,0.9698,0.9686,0.9689,0.9686,0.969,0.9714,0.9714,0.9714,0.9715,0,0.894,0.8961,0.9014,0.9075,0.9119,0.917,0.9221,0.9247,0.93,0.9342,0.9405,0.9446,0.9528,0.9591,0.9657,0.9694,0.9713,0.9719,0.9729,0.9718,0.9699,0.971,0.9646,0.9717,0.9716,0.9716,0.9716,0.9716,0.8966,0.9003,0.9062,0.912,0.9163,0.921,0.9251,0.9293,0.9346,0.9415,0.9438,0.9503,0.9562,0.9653,0.969,0.9742,0.9742,0.9756,0.976,0.9763,0.9762,0.9691,0.9755,0.9755,0.9755,0.9755,0.9755,0,0.9013,0.9052,0.9105,0.9176,0.9222,0.9236,0.9293,0.9331,0.9388,0.944,0.9492,0.9564,0.9626,0.968,0.9744,0.9775,0.9785,0.979,0.9788,0.9796,0.9758,0.9743,0.9781,0.9781,0.9781,0.9781,0.9781,0.9781,0.9042,0.9106,0.9133,0.9219,0.9259,0.9322,0.9354,0.9398,0.944,0.9519,0.957,0.9605,0.9658,0.9726,0.9783,0.9798,0.982,0.9822,0.9839,0.9802,0.9799,0.9796,0.9782,0.9827,0.9827,0.9873,0.9873,0.9873]},{"header":{"parameterUnit":"m.s-1","parameterCategory":1,"la1":30.2991,"la2":30.254,"lo1":-89.0895,"lo2":-89.0444,"dy":0.0017,"dx":0.0017,"nx":28,"ny":28,"refTime":"2024-05-27T21:00:00:Z","depth":0,"parameterNumber":3,"parameterNumberName":"V-component_of_WINDS"},"data":[0,0,0,0,0,0,0,0,0,0,0,0,0,0,0,0,0,0,0,0,0,0,0,0,0,0,0,0,0,0,0,0,0,0,0,0,0,0,0,0,0,0,0,0,0,0,0,0,0,0,0,0,0,0,0,0,0,0,2.5561,2.556,0,2.5491,2.5491,2.549,2.5441,2.5441,2.5441,2.544,2.5363,2.5361,2.536,0,0,0,0,0,0,0,0,0,0,0,0,0,2.5648,2.5647,2.5561,2.556,2.5559,2.5492,2.5491,2.549,2.5441,2.5441,2.544,2.544,2.5364,2.5362,2.536,0,0,0,0,0,0,0,0,0,0,0,0,0,2.5598,2.5646,2.5561,2.5527,2.5524,2.5492,2.5491,2.5489,2.5441,2.5441,2.544,2.544,2.5364,2.5362,2.5359,2.5354,0,0,2.5351,2.535,0,0,0,0,0,0,0,0,2.56,2.5594,2.5533,2.553,2.5525,2.5475,2.5493,2.5444,2.5442,2.5472,2.544,2.544,2.54,2.5395,2.5383,2.535,2.5347,2.5351,2.535,2.5348,2.5348,0,0,0,0,0,0,0,2.5604,2.5597,2.5533,2.5532,2.5528,2.5514,2.5506,2.5483,2.544,2.547,2.5466,2.5459,2.5398,2.5385,2.538,2.5346,2.5351,2.5349,2.5347,2.5346,2.5308,2.5308,0,0,0,0,0,0,2.5614,2.56,2.5536,2.5531,2.5563,2.5513,2.5504,2.5491,2.544,2.5432,2.5459,2.5457,2.539,2.5383,2.5377,2.5369,2.5348,2.5346,2.5345,2.5307,2.5308,2.5308,0,0,0,0,0,0,2.5616,2.5608,2.5538,2.5565,2.5555,2.5512,2.5498,2.549,2.5477,2.5432,2.5424,2.5455,2.5389,2.5381,2.5361,2.5366,2.5345,2.5343,2.5306,2.5307,2.5308,2.5353,0,0,0,0,0,0,2.5618,2.5609,2.5608,2.5565,2.5554,2.5525,2.5498,2.5489,2.5474,2.547,2.5426,2.5418,2.5388,2.5365,2.5359,2.5362,2.5341,2.5306,2.5307,2.5308,2.5351,2.5355,2.5359,0,0,0,0,0,2.5622,2.5621,2.5608,2.56,2.5551,2.5525,2.5518,2.5486,2.5474,2.5472,2.5443,2.5419,2.5367,2.5364,2.5356,2.5359,2.5305,2.5307,2.5308,2.5349,2.5354,2.5359,0,0,0,0,0,0,2.5663,2.5615,2.56,2.5586,2.556,2.5517,2.5513,2.5492,2.5467,2.5464,2.5423,2.5414,2.5398,2.5376,2.5373,2.5352,2.5333,2.5333,2.5367,2.5372,2.5376,2.5382,2.5338,0,0,0,0,0,2.5671,2.5656,2.5614,2.5606,2.5594,2.5556,2.5543,2.5521,2.5491,2.548,2.5449,2.542,2.5397,2.5383,2.5359,2.5347,2.5337,2.5345,2.5349,2.5353,2.5353,2.5346,2.535,2.5312,2.5312,2.5312,0,0,2.5687,2.5659,2.5651,2.5613,2.5591,2.5575,2.5547,2.553,2.5517,2.5476,2.5457,2.5433,2.5398,2.5383,2.5374,2.5364,2.5361,2.5354,2.5357,2.5356,2.5348,2.5351,2.5355,2.5313,2.5313,2.5313,0,0,2.5707,2.5684,2.5676,2.5655,2.5622,2.5597,2.5595,2.5555,2.5539,2.5519,2.5488,2.5472,2.5433,2.541,2.5393,2.5407,2.5384,2.54,2.5421,2.5415,2.5418,2.5421,2.5427,2.543,2.54,2.5401,2.5401,0,2.573,2.5706,2.5674,2.566,2.5645,2.5609,2.5601,2.558,2.5541,2.553,2.552,2.5472,2.5445,2.5425,2.5429,2.5416,2.5412,2.5405,2.5421,2.5423,2.5425,2.543,2.5432,2.5403,2.5403,2.5402,2.5402,0,2.5737,2.5721,2.5718,2.5683,2.5667,2.5656,2.5621,2.5608,2.5588,2.5564,2.5544,2.5512,2.5482,2.5475,2.5453,2.5452,2.5447,2.5429,2.5409,2.5431,2.5436,2.5437,2.5406,2.5405,2.5405,2.5404,0,0,2.5781,2.5731,2.573,2.5715,2.5677,2.5663,2.565,2.5623,2.5614,2.5587,2.5575,2.5544,2.5529,2.551,2.5485,2.548,2.5495,2.5462,2.5461,2.5471,2.5492,2.5507,2.551,2.5479,2.548,2.548,2.5496,0,2.5796,2.5774,2.5745,2.5731,2.5716,2.5683,2.5672,2.5647,2.5625,2.5607,2.5581,2.5561,2.5541,2.5529,2.5523,2.5495,2.5499,2.5493,2.5468,2.5467,2.5479,2.5512,2.5527,2.5544,2.5497,2.5498,2.5498,0,2.5811,2.579,2.5776,2.5742,2.5734,2.5725,2.5699,2.5683,2.5654,2.5638,2.5618,2.5592,2.5576,2.5559,2.5537,2.5533,2.5521,2.5506,2.5506,2.5503,2.5484,2.5511,2.5548,2.5551,2.55,2.55,2.55,0,2.5847,2.5814,2.5802,2.579,2.5749,2.5743,2.5725,2.5696,2.5682,2.5658,2.5649,2.5623,2.5609,2.5589,2.5557,2.5547,2.5539,2.5518,2.5525,2.5526,2.5525,2.5525,2.5562,2.5515,2.5515,2.5515,2.5515,0,2.5868,2.5861,2.5818,2.5811,2.5802,2.5769,2.576,2.5739,2.5714,2.5701,2.5669,2.5658,2.5616,2.5599,2.5573,2.556,2.5553,2.5539,2.5533,2.5543,2.5545,2.5535,2.5533,2.5516,2.5516,2.5516,2.5516,0,2.5906,2.5877,2.5862,2.5825,2.5816,2.5811,2.5779,2.577,2.5746,2.5731,2.5725,2.5687,2.5666,2.5633,2.56,2.5583,2.5574,2.5563,2.5585,2.5581,2.5591,2.5591,2.5622,2.5625,2.5576,2.5577,2.5577,0,2.5922,2.5916,2.588,2.5871,2.5855,2.5839,2.5826,2.5792,2.578,2.5747,2.5743,2.572,2.57,2.5667,2.5636,2.5612,2.56,2.5613,2.5596,2.5607,2.5602,2.5603,2.5603,2.5617,2.5618,2.5618,2.5619,0,2.5954,2.5941,2.5924,2.5902,2.5888,2.5869,2.5848,2.5842,2.5803,2.5791,2.577,2.5755,2.5724,2.5702,2.5674,2.5653,2.563,2.5624,2.5625,2.5635,2.5649,2.5644,2.5597,2.5624,2.5623,2.5623,2.5623,2.5622,2.5982,2.5976,2.5951,2.5933,2.5915,2.5897,2.5888,2.5864,2.5847,2.5821,2.5802,2.5783,2.5754,2.5715,2.5696,2.568,2.5669,2.567,2.567,2.5671,2.5676,2.5652,2.5675,2.5674,2.5674,2.5674,2.5674,0,2.6014,2.5996,2.5981,2.5954,2.5941,2.5922,2.5898,2.5888,2.5872,2.5849,2.5831,2.5808,2.5786,2.5755,2.5731,2.5724,2.5713,2.5719,2.5719,2.5716,2.5686,2.5688,2.5729,2.5729,2.5729,2.5729,2.5729,2.5729,2.6028,2.6019,2.6002,2.5983,2.5964,2.5948,2.5936,2.5919,2.5901,2.5878,2.5861,2.5841,2.5814,2.5788,2.5768,2.5759,2.5752,2.5762,2.575,2.5722,2.5717,2.5713,2.5715,2.576,2.576,2.5781,2.5781,2.5781]}]]